Find Kuiper-00191

NORAD ID: 67143 Int'l Des: 2025-301 Owner: KUIP Country: US Constellation: amazon-leo operational
LEOCIRCULARSTARLINK_TYPE

Live-Position

3D-Globus wird geladen...

Über Kuiper-00191

Beschreibung wird geladen...

Nächste Überflüge

Passes for default location (London). Set your location on the main map for personalized predictions.

Höhenverlauf

Loading altitude history...

Zweizeiliger Elementsatz

1 67143U 25301L 26125.47726527 .00003110 00000-0 43662-3 0 9997
2 67143 51.8990 182.0300 0000350 78.2327 281.8674 14.79943363 22061
Epoch: 5. Mai 2026 • Age: 11 hours

Aktueller Status

Höhe 647.4 km
Geschwindigkeit 7.53 km/s
Subsatellitenpunkt -51.20°S, 123.16°W
Startdatum 16. Dez. 2025
Alter 0.3 years
Typ internet

Technische Details

Klassifizierung Payload
Masse 490.00 kg
Trockenmasse 490.00 kg
Gesamtmasse 490.00 kg
Länge 1.80 m
Durchmesser 0.70 m
Spannweite 5.00 m
Form Box + 2 pan
Hersteller KUIP
Bus-Typ Kuiper
Phasenstatus In Orbit
Besitzer/Staat KUIP/US

Most Searched